User: anonymous   Login
Location: Oronoko Observatory
(41.9167°N, 86.3833°W)
Time: 19:49:10
(UTC-04:00)
Language:

PAYLOAD A - Orbit

View from above orbital plane
View from above orbital plane
View from above satellite
View from above satellite

Ground track
Ground track

The orbit data is extracted from the following two-line orbital elements,

1 27840U 03031A   16274.50606785  .00000011  00000-0  16547-4 0  9994
2 27840  98.1985 277.3527 0098245 181.1906 178.9064 14.38864592695971
Epoch (UTC): 30 September 2016 12:08:44
Eccentricity: 0.0098245
inclination: 98.1985°
perigee height: 692 km
apogee height: 832 km
right ascension of ascending node: 277.3527°
argument of perigee: 181.1906°
revolutions per day: 14.38864592
mean anomaly at epoch: 178.9064°
orbit number at epoch: 69597

The dashed part of the orbit path shows where the satellite is in the earth's shadow,  

DLR